Location: ??????
(54.8333°N, 39.1667°E)
Time: 16:04:24
(UTC+00:00)

Daily predictions for brighter satellites

Satellite Brightness Start Highest point End
(mag) Time Altitude Azimuth Time Altitude Azimuth Time Altitude Azimuth
Cosmos 1867 3.8 16:52:03 10° SW 16:57:32 83° NW 17:03:04 10° NE
NOSS 2-3 (C) 3.7 16:56:37 10° SSW 17:00:07 41° SE 17:04:10 10° ENE
Cosmos 1833 4.3 16:55:04 10° NNW 17:00:47 87° ENE 17:06:26 10° SSE
Cosmos 2366 rocket 4.1 16:54:58 10° N 17:01:21 82° ENE 17:07:44 10° SSE
Cosmos 1300 Rocket 4.1 17:00:02 10° SSE 17:04:05 38° E 17:08:10 10° NNE
CZ-4B R/B 3.6 16:59:04 10° S 17:04:42 72° WSW 17:10:19 10° NNW
Cosmos 2344 3.5 16:57:28 10° SW 17:04:50 76° SE 17:12:28 10° NE
NOSS 2-3 (D) 3.6 17:01:44 10° SSW 17:05:16 42° SE 17:09:19 10° ENE
USA 186 2.1 17:02:28 10° S 17:05:31 62° WSW 17:08:32 10° NNW
SPOT 1/Viking Rocket 4.1 17:00:29 10° S 17:05:40 64° WSW 17:10:53 10° NNW
DELTA 2 DEB (DPAF) 4.1 17:02:31 10° NNE 17:06:42 54° ESE 17:10:51 10° S
ATLAS 3B R/B 4.0 17:02:08 10° SSE 17:06:47 19° ESE 17:11:38 10° ENE
SJ 16-02 1.5 17:02:31 10° NNW 17:06:53 77° WSW 17:11:12 10° SSE
Cosmos 2218 Rocket 4.1 17:01:41 10° N 17:08:09 86° ENE 17:14:33 10° S
Cosmos 1455 2.1 17:05:10 10° S 17:08:39 54° E 17:12:10 10° NNE
Cosmos 1953 2.1 17:07:08 10° S 17:10:57 80° E 17:14:48 10° NNE
USA 281 3.3 17:07:37 10° SSE 17:14:14 84° WSW 17:20:52 10° NNW
Cosmos 2098 Rocket 3.7 17:10:51 10° SSE 17:15:33 38° E 17:19:28 10° NNE
NOSS 2-2 (E) 2.8 17:12:37 10° SW 17:15:43 57° SE 17:18:57 10° NE
Cosmos 2278 Rocket 4.1 17:11:20 10° WSW 17:16:29 34° NW 17:21:40 10° NNE
Cosmos 2263 Rocket 4.3 17:13:15 10° NNW 17:16:57 17° NNE 17:20:38 10° NE
Cosmos 1821 Rocket 4.0 17:10:55 10° N 17:17:08 65° ENE 17:23:13 10° SSE
Terra 2.9 17:17:15 10° ESE 17:21:18 29° ENE 17:25:23 10° N
CZ-4C R/B 3.8 17:18:35 10° NNE 17:21:46 30° E 17:24:49 10° SSE
Genesis I 4.2 17:23:25 10° NW 17:26:45 33° NNE 17:29:59 10° E
Okean-O 2.6 17:22:22 10° SSE 17:26:47 75° ENE 17:31:12 10° NNW
NOSS 2-2 (D) 2.8 17:26:45 10° SSW 17:29:51 54° SE 17:33:02 10° NE
Ariane Rocket 3.8 17:26:24 11° ESE 17:30:38 35° ENE 17:35:11 10° N
NOSS 2-3 (E) 3.2 17:28:02 10° SW 17:31:46 73° SE 17:36:11 10° NE
Cosmos 1486 Rocket 4.1 17:28:01 10° NNW 17:33:16 66° ENE 17:38:02 12° SE
SPOT 3 Rocket 4.4 17:30:51 12° ESE 17:35:05 35° ENE 17:39:46 10° N
BREEZE-M R/B 2.9 17:35:33 10° WSW 17:37:48 27° S 17:38:57 18° SE
Cosmos 1825 4.2 17:35:18 10° NNW 17:38:16 26° W 17:41:13 10° SSW
Cosmos 1025 Rocket 4.5 17:38:49 10° NNW 17:42:52 38° W 17:46:55 10° SSW
Cosmos 2084 Rocket 4.4 17:39:30 10° WSW 17:43:32 47° NNW 17:47:26 10° NE
USA 245 4.3 17:39:19 12° SE 17:44:16 51° ENE 17:48:47 10° N
Cosmos 1656 Rocket 3.9 17:39:21 10° SW 17:44:53 76° NW 17:50:23 10° NNE
USA 267 3.3 17:39:02 10° ENE 17:45:38 89° NNW 17:52:13 10° WSW
USA 129 2.8 17:45:23 10° N 17:48:01 56° WNW 17:50:34 10° SSW
Okean 1 Rocket 4.5 17:47:13 16° ESE 17:49:06 21° E 17:52:26 10° NE
Okean O Rocket 2.9 17:45:52 10° SSW 17:49:57 39° W 17:54:06 10° NNW
Cosmos 1302 Rocket 4.0 17:45:31 10° SSW 17:50:48 90° ESE 17:56:05 10° NNE
Cosmos 1975 Rocket 3.8 17:49:28 10° NNW 17:53:43 51° W 17:57:54 10° S
Resurs 01 Rocket 3.1 17:50:58 10° SSW 17:55:03 36° W 17:59:10 10° NNW
Iridium 4 Rocket 4.3 17:51:43 15° SE 17:55:39 38° E 18:00:55 10° NNE
Cosmos 2227 Rocket 3.4 17:52:41 10° NNW 17:57:48 32° NE 18:02:08 13° E
CZ-4C R/B 3.3 17:52:28 10° NW 17:58:35 51° NNE 18:05:51 11° E
MetOp-A 4.5 18:01:03 19° ESE 18:02:52 28° ENE 18:06:09 10° N
ATLAS CENTAUR R/B 3.0 18:00:32 10° NW 18:03:32 23° NNE 18:06:36 10° ENE
Cosmos 1934 Rocket 4.0 17:57:45 10° N 18:03:51 64° ENE 18:08:47 16° SSE
ATLAS 5 CENTAUR R/B 2.0 18:01:59 15° S 18:04:03 26° ESE 18:07:16 10° ENE
Landsat 4 3.5 18:03:43 18° SSE 18:06:14 86° W 18:09:46 10° NNW
NOSS 3-1 (A) 3.9 18:06:09 10° S 18:10:28 29° ESE 18:15:30 10° ENE
Cosmos 1346 Rocket 4.4 18:07:53 10° SW 18:11:27 36° WNW 18:15:02 10° N
SPOT 5 3.3 18:08:59 11° S 18:14:04 74° WSW 18:19:23 10° NNW
NOSS 2-2 (C) 3.2 18:13:48 10° WSW 18:16:56 64° NW 18:20:16 10° NE
Cosmos 1536 Rocket 3.5 18:15:09 10° NNW 18:19:35 89° E 18:22:32 21° S
ERS-1 Rocket 2.9 18:16:37 18° SSE 18:20:21 90° WNW 18:25:25 10° NNW
COSMOS 2455 3.2 18:15:19 10° NW 18:21:18 58° NE 18:25:16 21° ESE
CENTAUR R/B 3.7 18:17:03 10° WNW 18:24:17 53° NNE 18:32:42 11° E
Cosmos 2151 Rocket 3.5 18:22:34 18° S 18:25:47 66° E 18:30:11 10° NNE
Cosmos 1777 Rocket 4.0 18:21:27 10° NNW 18:26:46 88° ENE 18:29:54 25° SSE
Cosmos 1461 4.4 18:23:12 10° W 18:27:01 37° NNW 18:30:44 10° NE
Cosmos 2297 Rocket 2.3 18:21:41 10° NNW 18:27:21 65° NE 18:30:35 26° SE
ARGOS Delta rocket 4.3 18:24:39 25° SE 18:27:42 57° ENE 18:33:03 10° N
SL-27 R/B 4.0 18:26:56 10° NW 18:29:22 24° WSW 18:30:59 15° SSW
NOSS 3-1 (C) 3.1 18:27:26 10° SW 18:32:30 67° SE 18:38:43 10° NE
Cosmos 2219 4.3 18:28:42 10° NNW 18:33:52 34° NE 18:37:28 18° E
SL-4 R/B 1.8 18:30:56 10° WSW 18:34:24 50° S 18:34:56 44° SE
Cosmos 2369 Rocket 3.2 18:29:46 10° WSW 18:35:16 49° NW 18:40:47 10° NNE
Cosmos 1354 Rocket 4.0 18:31:12 10° NNW 18:36:33 84° WSW 18:39:32 27° SSE
Cosmos 1503 Rocket 4.3 18:31:37 10° NNW 18:36:58 68° WSW 18:40:15 24° S
H-2A R/B 4.1 18:39:07 17° ENE 18:40:01 18° ENE 18:42:39 10° NNE
Cosmos 371 Rocket 3.5 18:38:17 10° NNW 18:43:02 63° WSW 18:45:33 27° S
SJ 16-02 4.1 18:42:53 10° WNW 18:44:27 12° W 18:46:02 10° WSW
Cosmos 1992 Rocket 4.3 18:40:42 10° SW 18:45:53 68° WNW 18:51:08 10° NNE
Okean 2 Rocket 3.1 18:45:50 18° SSW 18:49:11 83° WNW 18:53:43 10° N
Spot 2 Rocket 3.7 18:46:51 24° S 18:49:57 68° WSW 18:55:01 10° NNW
ARIANE 5 R/B 3.7 18:49:45 26° E 18:51:08 32° ENE 18:55:08 10° N
Cosmos 1892 Rocket 3.6 18:49:00 10° N 18:53:20 62° ENE 18:54:34 42° SE
ATLAS 3B R/B 2.8 18:49:06 10° SSW 18:56:09 64° SE 19:03:42 10° NE
Terra 2.4 18:55:55 23° SSW 18:58:42 52° W 19:03:21 10° NNW
Cosmos 304 Rocket 4.2 18:55:44 10° NNW 19:00:25 55° WSW 19:02:28 31° S
Cosmos 2263 Rocket 3.3 18:57:23 10° NNW 19:02:35 36° NE 19:05:39 21° E
Genesis I 3.2 18:59:49 10° NW 19:03:23 55° SW 19:03:48 51° SSW
Sich 1 Rocket 4.0 19:00:53 16° SSW 19:04:15 61° WNW 19:08:41 10° N
Cosmos 1656 3.9 19:02:52 36° SSE 19:04:30 45° ESE 19:09:44 10° NE
NOSS 8 (E) 4.1 19:02:19 10° NW 19:05:17 78° SW 19:05:21 77° SSW
MOS 1 Rocket 3.1 19:06:13 42° S 19:07:36 78° WSW 19:11:58 10° NNW
Cosmos 1605 Rocket 4.1 19:02:09 10° NNW 19:08:35 79° W 19:12:10 28° S
Ariane Rocket 3.7 19:06:32 22° SSW 19:09:28 47° W 19:14:22 10° NNW
NOSS 8 (H) 4.1 19:07:25 10° NW 19:10:22 88° N 19:10:22 88° N
Cosmos 2173 Rocket 4.4 19:06:11 10° N 19:12:24 51° ENE 19:14:55 34° SE
Cosmos 332 Rocket 3.7 19:08:52 10° NNW 19:13:44 82° WSW 19:15:12 46° SSE
Cosmos 1437 Rocket 2.6 19:10:12 10° NNW 19:14:05 81° ENE 19:14:35 66° SE
SPOT 3 Rocket 4.2 19:11:28 24° SSW 19:14:21 49° W 19:19:25 10° NNW
ALOS 2 4.3 19:14:43 19° ENE 19:15:50 21° ENE 19:19:08 10° N
Cosmos 2344 4.4 19:12:40 10° W 19:19:44 51° NNW 19:27:49 10° ENE
Cosmos 1763 Rocket 3.8 19:25:21 42° ESE 19:25:32 42° ESE 19:30:22 10° NE
Okean 1 Rocket 3.5 19:24:18 27° SW 19:26:32 59° WNW 19:30:59 10° N
Cosmos 405 Rocket 2.7 19:28:40 62° ENE 19:28:40 62° ENE 19:32:06 10° NNE
USA 267 3.4 19:22:04 10° E 19:28:37 75° N 19:35:10 10° W
CZ-2C R/B 4.3 19:24:43 10° NNE 19:29:12 40° E 19:29:16 40° E
Cosmos 990 Rocket 4.0 19:24:26 10° NNW 19:29:39 75° WSW 19:31:04 48° S
Cosmos 1455 Rocket 2.9 19:30:53 63° SSE 19:31:28 76° E 19:35:53 10° NNE
Aureole 1 Rocket 2.8 19:29:25 10° NNW 19:31:53 52° NNW 19:31:53 52° NNW
NOSS 3-2 (A) 4.2 19:27:44 10° NW 19:34:30 64° NNE 19:39:59 22° ESE
MetOp-A 4.3 19:39:03 33° WSW 19:39:44 36° W 19:43:17 10° NNW
Cosmos 2016 Rocket 4.3 19:34:27 10° N 19:40:24 50° ENE 19:42:14 39° ESE
Meteor 2-1 Rocket 4.5 19:39:42 44° ESE 19:40:31 47° E 19:45:47 10° NNE
Cosmos 2100 Rocket 4.0 19:35:02 10° N 19:41:28 78° ENE 19:43:38 44° SSE
ATLAS CENTAUR R/B 1.2 19:38:10 10° NW 19:41:52 69° NE 19:41:52 69° NE
Cosmos 2227 Rocket 2.2 19:36:42 10° NW 19:42:24 76° WSW 19:43:56 49° SSE
Cosmos 2360 4.4 19:42:17 48° SE 19:42:53 50° ESE 19:48:23 10° NE
Cosmos 1727 Rocket 3.9 19:40:46 42° S 19:43:01 74° E 19:49:17 10° NNE
Landsat 5 4.2 19:42:34 10° N 19:46:50 53° WNW 19:48:24 34° SW
CZ-4C R/B 2.8 19:40:50 10° NW 19:47:36 78° SW 19:50:57 39° SE
ATLAS 5 CENTAUR R/B 1.8 19:44:07 10° WSW 19:47:38 55° NNW 19:51:44 10° NE
Cosmos 1844 Rocket 4.5 19:44:17 10° NNW 19:48:58 26° NNE 19:53:11 12° E
Cosmos 468 Rocket 4.3 19:49:18 46° ESE 19:49:18 46° ESE 19:54:15 10° NE
Cosmos 44 3.9 19:50:43 45° ESE 19:50:43 45° ESE 19:55:17 10° NE
PSLV R/B 4.5 19:46:22 10° NNE 19:49:41 44° ENE 19:49:41 44° ENE
Cosmos 1980 Rocket 3.5 19:52:26 24° E 19:52:26 24° E 19:56:08 10° NE
Cosmos 1869 4.4 19:52:49 32° ENE 19:52:49 32° ENE 19:55:24 10° NNE
H-2A R/B 4.4 19:50:16 10° ENE 19:51:05 12° ENE 19:51:05 12° ENE
Cosmos 2228 3.9 19:55:26 35° ENE 19:55:26 35° ENE 19:58:42 10° NNE
USA 81 4.0 19:54:56 51° SSW 19:56:19 83° W 20:01:38 10° N
Cosmos 372 Rocket 3.9 19:53:18 10° NNW 19:58:35 84° ENE 19:59:30 61° SE
Cosmos 2058 3.1 19:54:38 10° NNW 19:58:37 57° W 19:58:42 57° WSW
Cosmos 540 Rocket 3.4 20:00:18 58° ESE 20:00:24 58° ESE 20:05:26 10° NNE
NOSS 3-1 (A) 3.3 19:55:21 10° SW 20:00:37 78° NW 20:07:09 10° NE
Cosmos 2123 Rocket 4.3 20:00:05 45° SE 20:01:24 52° E 20:07:31 10° NNE
Cosmos 1697 Rocket 2.8 20:02:11 52° SE 20:02:28 53° ESE 20:07:59 10° NE
Cosmos 841 Rocket 4.5 20:03:46 31° E 20:03:46 31° E 20:07:37 10° NE
Cosmos 1000 Rocket 4.4 20:01:52 51° SSE 20:03:27 73° E 20:09:36 10° NNE
Meteor 2-15 4.4 19:59:41 10° NNW 20:05:53 87° ENE 20:07:30 53° SSE
Meteor 2-15 Rocket 4.5 20:00:15 10° N 20:06:25 70° ENE 20:07:58 51° SE
COSMOS 2455 3.4 20:01:29 10° NW 20:07:10 43° WSW 20:08:24 38° SSW
USA 229 DEB 3.5 20:06:44 46° S 20:08:34 64° SE 20:15:25 10° NE
USA 229 3.5 20:06:53 46° S 20:08:40 64° SE 20:15:31 10° NE
Cosmos 1626 Rocket 3.5 20:05:24 10° NNW 20:09:47 71° W 20:09:54 70° WSW
Cosmos 2297 Rocket 3.4 20:06:11 10° NW 20:11:03 30° WSW 20:12:24 27° SW
SL-4 R/B 4.4 20:09:38 10° W 20:09:47 11° W 20:09:47 11° W
Cosmos 2061 Rocket 4.2 20:07:13 10° N 20:13:39 65° ENE 20:15:22 48° SE
Cosmos 1937 Rocket 3.4 20:08:50 10° NNW 20:14:11 84° WSW 20:14:55 67° S
H-2A R/B 2.7 20:15:10 55° WNW 20:15:10 55° WNW 20:18:26 10° NNW
CENTAUR R/B 3.1 20:07:51 10° NW 20:15:46 85° SW 20:19:49 38° SE
Meteor 2-3 Rocket 3.6 20:10:51 10° NNW 20:16:33 85° WSW 20:17:38 60° S
Cosmos 2219 3.1 20:12:50 10° NW 20:18:30 70° WSW 20:19:22 60° S
Cosmos 1898 Rocket 3.6 20:13:27 10° NNW 20:18:40 61° WSW 20:19:15 57° SW
Okean 1-7 Rocket 3.5 20:15:28 10° NNW 20:20:00 84° W 20:20:03 84° WSW
NOSS 3-1 (C) 4.3 20:18:16 10° W 20:23:36 49° NNW 20:30:13 10° NE
SL-08 R/B 4.5 20:17:57 10° N 20:24:23 82° ENE 20:25:55 55° SSE
Cosmos 1725 Rocket 3.9 20:20:08 10° NNW 20:26:22 87° WSW 20:27:47 56° S
ARIANE 5 R/B 3.3 20:27:13 43° WSW 20:27:26 43° W 20:31:45 10° NNW
Cosmos 1544 Rocket 3.6 20:31:55 72° WNW 20:31:55 72° WNW 20:36:12 10° N
Cosmos 2233 Rocket 3.9 20:27:02 10° N 20:33:13 76° ENE 20:34:32 57° SE
Cosmos 292 Rocket 4.2 20:31:18 10° NW 20:35:46 48° WSW 20:35:46 48° WSW
Cosmos 1666 3.9 20:33:37 10° N 20:36:01 34° NNE 20:36:01 34° NNE
Cosmos 1862 3.8 20:33:22 10° N 20:36:36 58° N 20:36:36 58° N
Cosmos 1606 3.5 20:38:29 46° N 20:38:29 46° N 20:41:09 10° N
Cosmos 1459 Rocket 4.4 20:33:43 10° NNW 20:39:32 51° W 20:41:05 41° SW
Cosmos 2082 3.6 20:34:57 10° NW 20:40:37 71° WSW 20:41:12 65° SSW
Cosmos 2263 Rocket 2.1 20:41:18 10° NW 20:46:53 65° WSW 20:47:19 62° SW
NOSS 3-2 (C) 4.0 20:39:58 10° NW 20:46:56 75° NE 20:51:57 26° ESE
ATLAS 3B R/B 3.5 20:39:56 10° WSW 20:47:11 58° NNW 20:54:50 10° NE
Cosmos 1758 Rocket 4.3 20:46:09 10° NNW 20:50:12 44° W 20:50:12 44° W
Cosmos 1602 Rocket 4.2 20:46:34 10° NNW 20:50:27 46° W 20:50:27 46° W
ALOS 2 2.8 20:52:06 65° WNW 20:52:06 65° WNW 20:56:10 10° NNW
SL-19 R/B 4.2 20:46:58 10° NNE 20:52:36 82° ESE 20:53:25 66° S
Cosmos 2322 Rocket 4.2 20:55:58 14° E 20:55:58 14° E 20:58:28 10° ENE
Cosmos 1500 4.4 20:54:54 10° NNW 20:57:11 38° NNW 20:57:11 38° NNW
Spot 4 4.4 21:00:02 46° W 21:00:02 46° W 21:04:41 10° NNW
Lacrosse 4 Rocket 3.8 21:03:10 13° ENE 21:03:10 13° ENE 21:03:57 10° ENE
Cosmos 1844 4.3 21:02:16 10° NNW 21:07:54 52° NE 21:10:04 34° ESE
Meteor 1-27 4.0 21:09:03 72° SSW 21:09:41 89° WNW 21:15:18 10° NNE
Uosat 12 SS-18 rocket 4.2 21:05:58 10° NW 21:10:14 70° NW 21:10:14 70° NW
SL-16 R/B 3.5 21:11:38 26° E 21:11:38 26° E 21:15:59 10° NE
Cosmos 1825 Rocket 4.0 21:07:12 10° NNW 21:11:00 55° WNW 21:11:00 55° WNW
USA 267 3.1 21:08:16 32° ESE 21:11:40 83° SSW 21:18:15 10° WNW
Cosmos 1606 Rocket 3.7 21:12:47 67° NNE 21:12:47 67° NNE 21:16:35 10° NNE
Cosmos 2058 Rocket 3.9 21:17:39 40° ENE 21:17:39 40° ENE 21:21:11 10° NNE
ATLAS CENTAUR R/B 3.7 21:16:26 10° WNW 21:16:59 13° WNW 21:16:59 13° WNW
Cosmos 2227 Rocket 4.1 21:22:04 10° WNW 21:25:31 17° W 21:25:45 17° W
NOSS 3-2 (A) 4.1 21:18:31 10° NW 21:25:35 58° SW 21:27:19 49° S
Cosmos 1271 Rocket 3.8 21:24:43 10° NNW 21:27:20 39° NW 21:27:20 39° NW
H-2A R/B 2.3 21:24:24 10° NNE 21:27:56 64° NNE 21:27:56 64° NNE
GEOS 3 Rocket 3.9 21:27:49 39° ESE 21:29:50 69° NE 21:35:06 10° NW
Cosmos 2278 4.2 21:30:51 44° ESE 21:30:51 44° ESE 21:36:13 10° NE
Cosmos 44 4.1 21:29:00 30° W 21:31:27 54° NW 21:36:36 10° NE
Cosmos 2228 4.4 21:32:00 30° WNW 21:32:11 30° WNW 21:35:56 10° N
ATLAS 5 CENTAUR R/B 3.5 21:28:59 10° WNW 21:32:21 27° N 21:36:15 10° NE
Geosat 3.9 21:33:18 73° WSW 21:33:18 73° WSW 21:38:17 10° NW
Cosmos 1844 Rocket 2.7 21:28:05 10° NNW 21:33:45 77° NE 21:34:48 59° ESE
Cosmos 1076 Rocket 3.8 21:30:18 10° NNW 21:34:03 65° NNW 21:34:03 65° NNW
Cosmos 1980 Rocket 2.2 21:34:09 61° WSW 21:35:07 77° NW 21:40:49 10° NNE
Cosmos 1125 Rocket 3.4 21:29:52 10° NNW 21:35:07 77° ENE 21:35:40 69° ESE
CZ-4C R/B 4.0 21:29:40 10° WNW 21:35:38 28° WSW 21:36:02 28° WSW
Cosmos 2344 4.4 21:28:17 10° WNW 21:35:40 54° NNE 21:45:02 10° E
PSLV R/B 3.7 21:31:58 10° NNE 21:36:24 83° NNW 21:36:24 83° NNW
Cosmos 2151 3.7 21:36:08 10° NNW 21:39:32 47° WNW 21:39:32 47° WNW
Cosmos 1238 Rocket 4.1 21:44:01 31° NNE 21:44:01 31° NNE 21:45:59 10° NNE
Meteor 1-22 4.5 21:38:52 10° NNW 21:44:20 87° ENE 21:44:56 72° SSE
Cosmos 841 Rocket 4.0 21:43:47 46° W 21:44:44 53° NW 21:49:47 10° NNE
USA 238 DEB 3.8 21:39:16 10° NW 21:46:27 87° NE 21:51:10 26° SE
USA 238 3.8 21:39:23 10° NW 21:46:34 87° NE 21:51:23 25° SE
Cosmos 1697 Rocket 3.7 21:43:51 25° W 21:46:37 42° NW 21:52:02 10° NNE
Helios 1A Rocket 3.3 21:49:34 58° NNE 21:49:34 58° NNE 21:52:57 10° NNW
Cosmos 2227 4.4 21:46:04 10° NW 21:51:38 55° WSW 21:51:39 55° WSW
Cosmos 1809 Rocket 4.4 21:50:40 60° SSE 21:51:50 79° E 21:58:03 10° NNE
Intercosmos 24 4.4 21:52:31 69° WSW 21:52:49 72° WNW 21:57:03 10° N
Cosmos 1726 Rocket 4.1 21:55:10 51° WNW 21:55:10 51° WNW 21:59:09 10° N
Cosmos 2369 3.8 21:54:29 55° WSW 21:55:38 71° NW 22:01:19 10° NNE
USA 229 DEB 4.3 21:54:04 13° W 21:59:45 55° NNW 22:06:49 10° NE
USA 229 4.3 21:54:13 14° W 21:59:50 55° NNW 22:06:55 10° NE
Cosmos-2242 3.6 22:01:13 47° ENE 22:01:13 47° ENE 22:04:57 10° NNE
Cosmos 2150 Rocket 4.0 21:56:13 10° NNW 22:01:24 76° ENE 22:02:11 62° ESE
Cosmos 2298 Rocket 4.0 21:56:42 10° NNW 22:02:03 78° ENE 22:02:58 61° SE
Cosmos 2346 Rocket 4.5 22:03:20 56° SW 22:04:38 73° WNW 22:10:54 10° N
CENTAUR R/B 3.9 21:58:50 10° WNW 22:06:02 34° WSW 22:06:56 33° SW
Meteor 1-25 Rocket 4.1 22:02:51 10° NNW 22:08:34 87° WSW 22:09:25 66° S
Meteor 1-20 Rocket 4.1 22:04:01 10° NNW 22:09:36 74° W 22:10:17 66° SSW
Cosmos 1867 4.5 22:06:10 10° NW 22:11:30 48° NNE 22:16:49 10° ESE
CZ-2C R/B 4.2 22:08:25 13° ESE 22:12:30 32° ENE 22:17:11 10° N
USA 215 3.3 22:11:13 10° ENE 22:17:38 54° SE 22:18:42 49° S
Meteor 2-14 Rocket 4.4 22:18:19 56° SSW 22:19:39 77° WNW 22:25:51 10° N
Cosmos 1464 Rocket 4.1 22:14:24 10° NNW 22:20:38 60° W 22:21:54 51° SW
Cosmos 158 Rocket 4.5 22:21:25 42° ESE 22:21:41 42° ESE 22:26:23 10° NE
Resurs 1-4 Rocket 3.8 22:17:35 10° NE 22:21:46 23° E 22:23:46 19° ESE
Aureole 3 Rocket 3.1 22:18:14 10° N 22:23:45 77° ENE 22:24:02 73° ESE
Cosmos 2333 Rocket 3.0 22:22:54 35° SE 22:23:47 37° ESE 22:28:55 10° NE
Lacrosse 5 3.3 22:26:26 24° ESE 22:26:26 24° ESE 22:29:49 10° ENE
Cosmos 2221 3.9 22:27:05 27° ESE 22:27:37 28° E 22:31:16 10° NNE
Cosmos 2360 Rocket 2.7 22:28:10 42° SE 22:29:03 45° ESE 22:34:25 10° NE
NOSS 3-4 (A) 4.4 22:29:01 28° SE 22:29:42 28° ESE 22:34:44 10° ENE
Cosmos 2263 Rocket 4.2 22:27:04 10° WNW 22:28:59 13° W 22:28:59 13° W
NOSS 3-4 (C) 4.4 22:29:04 27° SE 22:29:46 28° ESE 22:34:47 10° ENE
Cosmos 1766 Rocket 4.4 22:25:43 10° N 22:29:52 43° ENE 22:30:47 38° ESE
Cosmos 2278 Rocket 3.7 22:29:18 10° NNW 22:34:33 36° NE 22:39:46 10° ESE
Cosmos 1814 Rocket 4.4 22:34:20 45° W 22:35:24 53° NW 22:40:29 10° NNE
Cosmos 1570 Rocket 3.8 22:36:43 67° SSW 22:37:27 87° ESE 22:42:43 10° NNE
NOSS 3-2 (C) 4.3 22:30:55 10° NW 22:37:50 45° SW 22:39:19 42° SSW
USA 32 3.9 22:37:08 64° S 22:37:59 88° E 22:43:16 10° N
Cosmos 2322 Rocket 2.2 22:37:45 54° SSE 22:38:45 65° ESE 22:44:20 10° NE
Lacrosse 4 Rocket 1.4 22:39:06 68° NNW 22:39:06 68° NNW 22:42:56 10° NE
Cosmos 2034 Rocket 4.0 22:33:10 10° NNW 22:39:17 62° W 22:40:37 50° SW
ATLAS 3B R/B 4.1 22:32:10 10° WNW 22:39:19 43° N 22:46:43 10° ENE
Cosmos 2084 Rocket 4.5 22:38:56 10° NW 22:41:08 32° NW 22:41:08 32° NW
IDEFIX/ARIANE 42P 3.6 22:38:28 10° NNE 22:43:18 37° E 22:44:58 30° SE
Cosmos 1812 4.0 22:45:20 30° NW 22:45:20 30° NW 22:48:02 10° N
Cosmos 1743 3.6 22:41:23 10° N 22:44:55 41° ENE 22:45:18 40° E
BlueWalker 3 3.7 22:49:11 23° ESE 22:49:11 23° ESE 22:50:42 10° E
Cosmos 2219 Rocket 3.2 22:45:40 30° SE 22:47:07 34° ESE 22:52:08 10° NE
NOSS 2-2 (E) 4.3 22:43:42 10° NW 22:47:28 53° NNE 22:52:32 10° ESE
Cosmos 1844 4.2 22:46:37 10° NW 22:51:55 41° WSW 22:51:55 41° WSW
Cosmos 1933 3.2 22:52:13 81° N 22:52:13 81° N 22:56:02 10° NNE
Okean 3 Rocket 4.5 22:50:00 10° N 22:54:23 46° ENE 22:56:20 28° SE
SL-16 R/B 2.2 22:53:27 49° SW 22:54:59 75° NW 23:00:42 10° NNE
Cosmos 2058 Rocket 4.4 22:54:51 27° WNW 22:55:09 28° WNW 22:58:56 10° N
USA 267 3.6 22:55:32 40° SW 22:55:32 40° SW 23:01:20 10° WNW
NOSS 2-1 (C) 3.8 22:58:32 44° NNE 22:58:32 44° NNE 23:00:48 10° NE
NOSS 2-1 (E) 3.8 22:58:37 42° NE 22:58:37 42° NE 23:00:50 10° NE
Cosmos 1782 3.0 23:00:58 55° NW 23:00:58 55° NW 23:04:30 10° N
H-2A R/B 3.7 22:57:15 10° NNE 23:01:17 55° ESE 23:01:44 52° SE
NOSS 2-2 (D) 4.3 22:58:01 10° NW 23:01:43 51° NNE 23:06:39 10° ESE
H-2A R/B 4.1 23:01:09 10° NNW 23:03:48 17° NW 23:04:46 16° WNW
Cosmos 1812 Rocket 3.6 23:04:37 60° WSW 23:04:58 63° WNW 23:09:26 10° N
Cosmos 1634 Rocket 4.0 22:58:49 10° NNW 23:05:08 74° W 23:07:26 41° S
Timation 2 Rocket 4.4 23:00:50 10° NW 23:07:04 44° WSW 23:08:04 41° SW
GEOS 3 Rocket 4.3 23:08:51 36° WSW 23:08:51 36° WSW 23:13:04 10° WNW
Meteor 1-26 Rocket 4.3 23:06:37 43° S 23:08:32 77° E 23:14:23 10° NNE
ADEOS II 3.3 23:04:44 10° NNE 23:09:30 34° E 23:12:19 20° SE
Meteor 1-14 Rocket 4.3 23:05:06 10° NNW 23:10:40 75° ENE 23:13:40 28° SSE
SL-16 R/B 3.0 23:06:40 10° SE 23:12:44 61° ENE 23:18:52 10° NNW
Meteor 1-28 Rocket 4.2 23:11:21 28° ESE 23:12:47 41° ENE 23:16:16 10° N
Cosmos 2278 4.3 23:12:42 31° W 23:15:00 48° NW 23:20:31 10° NNE
Cosmos 2142 Rocket 4.4 23:10:31 10° N 23:16:42 86° ENE 23:20:05 29° SSE
Cosmos 1844 Rocket 3.9 23:12:39 10° NW 23:16:26 24° W 23:16:26 24° W
ATLAS 5 CENTAUR R/B 3.4 23:13:24 10° NW 23:17:19 34° NNE 23:21:59 10° E
Cosmos 1980 Rocket 3.9 23:15:52 12° W 23:20:01 26° NNW 23:24:44 10° NNE
CZ-2D R/B 2.5 23:15:22 10° NNE 23:20:38 57° ESE 23:23:02 31° SSE
Cosmos 1726 3.3 23:17:58 10° N 23:20:55 33° ENE 23:21:59 26° ESE
Cosmos 1461 3.1 23:20:49 10° NW 23:24:42 62° NE 23:28:29 10° ESE
NOSS 2-1 (D) 3.5 23:25:50 42° NNW 23:25:50 42° NNW 23:28:45 10° NE
Cosmos 2084 4.1 23:28:22 33° WNW 23:29:33 43° NNW 23:33:14 10° NE
Cosmos 1515 4.2 23:29:52 40° WNW 23:29:52 40° WNW 23:33:06 10° N
Cosmos 2208 Rocket 4.4 23:28:56 36° WSW 23:30:50 54° NW 23:36:12 10° NNE
Cosmos 1900 4.4 23:28:48 10° NW 23:33:47 55° SW 23:35:33 36° S
Cosmos 1943 Rocket 3.1 23:30:27 10° NNW 23:35:59 50° NE 23:41:29 10° ESE
USA 238 DEB 4.5 23:30:33 10° WNW 23:36:56 34° WSW 23:38:30 31° SW
USA 238 4.5 23:30:39 10° WNW 23:37:03 34° WSW 23:38:43 31° SW
Cosmos 1408 Rocket 3.8 23:33:07 10° N 23:37:25 66° ENE 23:39:56 24° SSE
Cosmos 1842 Rocket 3.9 23:36:39 34° SSE 23:38:24 62° E 23:42:49 10° NNE
Cosmos-2242 4.4 23:37:49 23° W 23:38:27 24° WNW 23:41:57 10° N
COSMOS 2428 3.5 23:40:42 24° S 23:43:46 45° ESE 23:49:10 10° NE
IRIDIUM 104 4.2 23:39:01 10° N 23:44:15 76° W 23:46:43 32° S
Meteor 1-11 Rocket 3.8 23:40:27 10° NNW 23:46:06 75° ENE 23:51:35 10° SSE
NOSS 2-2 (C) 3.6 23:45:01 10° NW 23:48:58 87° NE 23:54:27 10° SE
Cosmos 1378 3.7 23:50:17 36° WNW 23:50:17 36° WNW 23:53:26 10° N
Cosmos 2237 Rocket 4.0 23:47:50 10° SSE 23:52:18 25° ESE 23:56:48 10° NE
CZ-2C R/B 2.7 23:49:54 30° S 23:52:32 59° W 23:57:52 10° NNW
Cosmos 2369 Rocket 4.5 23:48:17 10° NNW 23:53:00 26° NNE 23:57:39 10° E
IRIDIUM 114 4.3 23:48:12 10° N 23:53:23 65° W 23:55:50 31° SSW
Cosmos 1805 Rocket 4.0 23:49:26 10° N 23:53:46 60° ENE 23:57:50 11° SSE
Cosmos 1500 Rocket 3.7 23:49:58 10° N 23:54:27 73° ENE 23:57:59 16° SSE
UNK 3.9 23:51:06 12° SSE 23:55:19 75° ENE 23:59:56 10° NNW
